Location: B�hl
(48.6968°N, 8.1352°E)
Time: 11:17:09
(UTC+00:00)

Cosmos 1743 - Pass Details

Date: 08 March 2021
Orbit: 509 x 527 km, 82.6° (Epoch: 10 April)

Event Time Altitude Azimuth Distance (km) Brightness Sun altitude
Rises 18:34:46 0° 160° (SSE) 2,649 6.0 -12.8°
Reaches altitude 10° 18:37:06 10° 148° (SSE) 1,767 5.0 -13.1°
Maximum altitude 18:40:24 27° 90° (E) 1,048 3.6 -13.7°
Drops below altitude 10° 18:43:42 10° 32° (NNE) 1,783 5.2 -14.2°
Sets 18:46:05 0° 20° (NNE) 2,678 6.2 -14.6°
